Flag for Germany Weather past 2 weeks in Ellwangen (Jagst), Baden-Württemberg, Germany

Now
60 °F

Overcast.


Feels Like: 60 °F
Forecast: 59 / 77 °F
Wind: 6 mph from West

Location: Stoetten

Current Time: Jul 26, 2014 at 1:56:57 PM

Latest Report: Jul 26, 2014 at 1:00 PM


Visibility: 1 mi

Pressure: 29.92 "Hg

Humidity: 98%

Dew point: 59 °F

Location of Ellwangen (Jagst)Location

Historic Weather in Ellwangen (Jagst) — Graph

°F

Ellwangen (Jagst) temperature yesterday

Maximum temperature yesterday: 72 °F (at 5:00 PM)
Minimum temperature yesterday: 57 °F (at 6:00 AM)
Average temperature yesterday: 65 °F

Past Weeks' High & Low Weather Summary

 TemperatureHumidityPressure
High85 °F (Jul 19, 5:00 PM)100% (Jul 12, 5:00 AM)30.19 "Hg (Jul 12, 5:00 AM)
Low54 °F (Jul 13, 5:00 AM)31% (Jul 18, 4:00 PM)29.78 "Hg (Jul 13, 5:00 PM)
Average65 °F71%29.95 "Hg
* Reported Jul 11 12:00 Noon — Jul 26 12:00 Noon, Ellwangen (Jagst), Weather by CustomWeather, © 2014

Note: Actual official high and low records may vary slightly from our data, if they occured in-between our weather recording intervals... More about our weather records

Advertising

Ellwangen (Jagst) weather history for previous 24 hours

 ConditionsComfort  
Time TempWeatherWind HumidityBarometerVisibility
12:00 PM
Jul 26
57 °FLight rain. Overcast.3 mph97%29.95 "Hg7 mi
11:00 AM59 °FRain. Overcast.3 mph97%29.94 "Hg2 mi
10:00 AM62 °FOvercast.3 mph84%29.89 "Hg7 mi
9:00 AM62 °FOvercast.3 mph85%29.89 "Hg19 mi
8:00 AM62 °FOvercast.3 mph83%29.88 "Hg22 mi
7:00 AM61 °FOvercast.3 mph87%29.88 "Hg22 mi
6:00 AM60 °FOvercast.3 mph88%29.88 "Hg14 mi
5:00 AM60 °FOvercast.3 mph87%29.88 "Hg5 mi
4:00 AM63 °FOvercast.2 mph69%29.88 "Hg11 mi
3:00 AM63 °FOvercast.1 mph69%29.89 "Hg9 mi
2:00 AM64 °FPassing clouds.2 mph64%29.88 "Hg14 mi
1:00 AM64 °FPassing clouds.2 mph66%29.88 "Hg14 mi
12:00 AM65 °FClear.2 mph62%29.87 "Hg17 mi
11:00 PM
Jul 25
64 °FClear.1 mph70%29.89 "Hg16 mi
10:00 PM66 °FPassing clouds.1 mph60%29.88 "Hg17 mi
9:00 PM67 °FOvercast.N/A56%29.86 "Hg43 mi
8:00 PM69 °FOvercast.1 mph62%29.85 "Hg34 mi
7:00 PM71 °FOvercast.2 mph53%29.84 "Hg34 mi
6:00 PM72 °FScattered clouds.1 mph51%29.83 "Hg34 mi
5:00 PM72 °FScattered clouds.1 mph48%29.84 "Hg31 mi
4:00 PM71 °FPartly sunny.3 mph58%29.86 "Hg34 mi
3:00 PM71 °FPartly sunny.2 mph51%29.86 "Hg34 mi
2:00 PM69 °FOvercast.3 mph58%29.87 "Hg28 mi
1:00 PM72 °FThunderstorms. Scattered clouds.2 mph52%29.86 "Hg28 mi
Weather by CustomWeather, © 2014

See weather overviewHow to use our weather pages